Weather History for Brooksville, FL

Change the Weather History Date:

Tuesday, April 2, 2013

  Actual Average Record
Temperature  
Mean Temperature 68 °F -  
Max Temperature 86 °F 78 °F 88 °F (2008)
Min Temperature 51 °F 53 °F 37 °F (2004)
Cooling Degree Days 4    
Growing Degree Days 18 (Base 50)    
Moisture  
Dew Point 55 °F    
Average Humidity 81    
Maximum Humidity 100    
Minimum Humidity 30    
Precipitation  
Precipitation 0.00 in - - ()
Sea Level Pressure  
Sea Level Pressure 30.05 in    
Wind  
Wind Speed 2 mph (East)    
Max Wind Speed 10 mph    
Max Gust Speed 20 mph    
Visibility 6 miles    
Events Fog    
Averages and records for this station are not official NWS values.
T = Trace of Precipitation, MM = Missing Value Source: NWS Daily Summary

Daily Weather History Graph

Daily Weather History Graph

Search for Another Location

Airport:

Trip Planner

Search our weather history database for the weather conditions in past years. The results will help you decide how hot, cold, wet, or windy it might be!

Date:

Astronomy

Apr. 02, 2013 Rise Set
Actual Time 7:18 AM EDT 7:48 PM EDT
Civil Twilight 6:54 AM EDT 8:12 PM EDT
Nautical Twilight 6:26 AM EDT 8:40 PM EDT
Astronomical Twilight 5:58 AM EDT 9:08 PM EDT
Moon 1:32 AM EDT (4/2) 12:27 PM EDT (4/2)
Length of Visible Light 13h 17m
Length of Day
12h 30m
Waning Gibbous, 56% of the Moon is Illuminated
Apr 2
Waning Gibbous
Apr 3
Last Quarter
Apr 10
New
Apr 18
First Quarter
Apr 25
Full

Hourly Weather History & Observations

Time (EDT) Temp. Heat Index Dew Point Humidity Pressure Visibility Wind Dir Wind Speed Gust Speed Precip Events Conditions
12:19 AM 60.8 °F - 60.8 °F 100% 30.04 in 1.8 mi South 4.6 mph - N/A   Clear
12:21 AM 60.8 °F - 59.0 °F 94% 30.04 in 1.5 mi South 4.6 mph - N/A   Partly Cloudy
12:24 AM 60.8 °F - 59.0 °F 94% 30.04 in 0.8 mi South 4.6 mph - N/A   Mist
12:53 AM 62.1 °F - 61.0 °F 96% 30.03 in 0.5 mi Calm Calm - N/A Fog Fog
1:47 AM 60.8 °F - 59.0 °F 94% 30.03 in 1.2 mi Calm Calm - N/A   Scattered Clouds
1:53 AM 61.0 °F - 60.1 °F 97% 30.03 in 3.0 mi Calm Calm - N/A   Partly Cloudy
2:18 AM 60.8 °F - 60.8 °F 100% 30.03 in 2.5 mi SE 3.5 mph - N/A   Clear
2:27 AM 60.8 °F - 60.8 °F 100% 30.03 in 6.0 mi Calm Calm - N/A   Clear
2:53 AM 59.0 °F - 57.9 °F 96% 30.03 in 6.0 mi NNE 3.5 mph - N/A   Clear
3:23 AM 57.2 °F - 57.2 °F 100% 30.03 in 1.8 mi Calm Calm - N/A   Clear
3:26 AM 57.2 °F - 57.2 °F 100% 30.03 in 1.0 mi Calm Calm - N/A   Mist
3:33 AM 55.4 °F - 55.4 °F 100% 30.03 in 0.2 mi Calm Calm - N/A Fog Fog
3:53 AM 55.9 °F - 55.0 °F 97% 30.03 in 0.2 mi Calm Calm - N/A Fog Fog
4:51 AM 55.4 °F - 55.4 °F 100% 30.04 in 2.0 mi Calm Calm - N/A   Mostly Cloudy
4:53 AM 55.9 °F - 55.0 °F 97% 30.04 in 2.5 mi Calm Calm - N/A   Mostly Cloudy
4:55 AM 55.4 °F - 55.4 °F 100% 30.04 in 1.5 mi Calm Calm - N/A   Scattered Clouds
5:04 AM 55.4 °F - 55.4 °F 100% 30.04 in 3.0 mi Calm Calm - N/A   Partly Cloudy
5:19 AM 53.6 °F - 53.6 °F 100% 30.04 in 1.8 mi Calm Calm - N/A   Partly Cloudy
5:23 AM 53.6 °F - 53.6 °F 100% 30.04 in 1.0 mi Calm Calm - N/A   Mist
5:28 AM 53.6 °F - 53.6 °F 100% 30.04 in 2.0 mi Calm Calm - N/A   Partly Cloudy
5:36 AM 53.6 °F - 53.6 °F 100% 30.04 in 7.0 mi Calm Calm - N/A   Partly Cloudy
5:53 AM 55.9 °F - 55.0 °F 97% 30.04 in 10.0 mi Calm Calm - N/A   Clear
6:14 AM 53.6 °F - 53.6 °F 100% 30.04 in 6.0 mi Calm Calm - N/A   Partly Cloudy
6:38 AM 51.8 °F - 51.8 °F 100% 30.05 in 1.5 mi Calm Calm - N/A   Clear
6:49 AM 51.8 °F - 51.8 °F 100% 30.05 in 4.0 mi Calm Calm - N/A   Clear
6:53 AM 52.0 °F - 51.1 °F 97% 30.05 in 6.0 mi South 3.5 mph - N/A   Partly Cloudy
7:53 AM 53.1 °F - 53.1 °F 100% 30.09 in 8.0 mi Calm Calm - N/A   Clear
8:53 AM 62.1 °F - 60.1 °F 93% 30.10 in 10.0 mi Calm Calm - N/A   Clear
9:53 AM 69.1 °F - 62.1 °F 78% 30.11 in 10.0 mi Calm Calm - N/A   Clear
10:53 AM 75.9 °F - 57.0 °F 52% 30.12 in 10.0 mi NE 6.9 mph - N/A   Clear
11:53 AM 80.1 °F 80.1 °F 55.0 °F 42% 30.11 in 10.0 mi NE 8.1 mph - N/A   Clear
12:53 PM 82.0 °F 81.3 °F 54.0 °F 38% 30.10 in 10.0 mi NE 10.4 mph - N/A   Clear
1:53 PM 84.0 °F 82.6 °F 54.0 °F 35% 30.08 in 10.0 mi NNE 3.5 mph - N/A   Partly Cloudy
2:53 PM 82.9 °F - 52.0 °F 34% 30.05 in 10.0 mi East 4.6 mph - N/A   Clear
3:53 PM 84.9 °F - 52.0 °F 32% 30.03 in 10.0 mi Variable 4.6 mph - N/A   Clear
4:53 PM 86.0 °F - 51.1 °F 30% 30.03 in 10.0 mi East 5.8 mph - N/A   Partly Cloudy
5:53 PM 82.0 °F 81.2 °F 53.1 °F 37% 30.03 in 10.0 mi WNW 10.4 mph 19.6 mph N/A   Clear
6:53 PM 79.0 °F - 52.0 °F 39% 30.03 in 10.0 mi West 8.1 mph - N/A   Clear
7:53 PM 73.0 °F - 50.0 °F 44% 30.04 in 10.0 mi West 4.6 mph - N/A   Clear
8:53 PM 71.1 °F - 54.0 °F 55% 30.06 in 10.0 mi WNW 4.6 mph - N/A   Clear
9:53 PM 63.0 °F - 53.1 °F 70% 30.08 in 10.0 mi Calm Calm - N/A   Clear
10:53 PM 61.0 °F - 53.1 °F 75% 30.09 in 10.0 mi Calm Calm - N/A   Clear
11:53 PM 64.9 °F - 55.0 °F 70% 30.10 in 10.0 mi East 5.8 mph - N/A   Clear